DW6891 Weather Reports


time (UTC)temp
F
wind
direction
speed
knots
gust
knots
rain 1hr
in
rain 24hr
in
rain mn
in
humidity
%
barometer
mb
20260503192500 78 262 1.7 6.1 0.00 0.00 0.00 46 1012.1
20260503192000 78 314 0.9 4.3 0.00 0.00 0.00 48 1012.2
20260503191458 79 283 3.5 4.3 0.00 0.00 0.00 47 1012.3
20260503190958 79 314 2.6 4.3 0.00 0.00 0.00 46 1012.3
20260503190459 78 359 1.7 4.3 0.00 0.00 0.00 46 1012.4
20260503190000 78 261 0.9 4.3 0.00 0.00 0.00 48 1012.4
20260503185500 77 359 0.0 4.3 0.00 0.00 0.00 47 1012.5
20260503185000 76 293 0.9 4.3 0.00 0.00 0.00 52 1012.5
20260503184459 76 283 2.6 5.2 0.00 0.00 0.00 52 1012.5
20260503183959 76 274 1.7 5.2 0.00 0.00 0.00 51 1012.6
20260503183501 76 287 4.3 4.3 0.00 0.00 0.00 54 1012.7
20260503182458 75 297 2.6 5.2 0.00 0.00 0.00 54 1012.7
20260503181959 74 165 0.0 3.5 0.00 0.00 0.00 53 1012.8
20260503180959 74 243 0.9 3.5 0.00 0.00 0.00 54 1012.8
20260503175958 73 283 0.9 4.3 0.00 0.00 0.00 58 1012.9
20260503175000 72 277 0.9 3.5 0.00 0.00 0.00 59 1013.0
20260503174501 72 271 0.9 5.2 0.00 0.00 0.00 58 1013.0
20260503173959 71 356 2.6 5.2 0.00 0.00 0.00 59 1013.0
20260503173459 71 188 0.9 3.5 0.00 0.00 0.00 60 1013.1
20260503173001 70 289 0.9 6.1 0.00 0.00 0.00 64 1013.1
20260503172459 70 242 4.3 4.3 0.00 0.00 0.00 61 1013.1
20260503171959 70 254 0.9 3.5 0.00 0.00 0.00 62 1013.2
20260503171459 69 187 0.0 4.3 0.00 0.00 0.00 63 1013.2
20260503171001 69 278 0.9 5.2 0.00 0.00 0.00 64 1013.2
20260503170501 69 248 0.9 2.6 0.00 0.00 0.00 65 1013.2
20260503150958 57 57 0.0 0.9 0.00 0.00 0.00 94 1013.5
20260503150458 57 57 0.0 0.9 0.00 0.00 0.00 96 1013.6
20260503130957 50 57 0.0 0.0 0.00 0.00 0.00 93 1013.4
20260503130458 50 57 0.0 0.0 0.00 0.00 0.00 93 1013.4
20260503110459 52 57 0.0 0.0 0.00 0.00 0.00 92 1013.5
20260503090457 54 57 0.0 0.0 0.00 0.00 0.00 90 1013.7
20260503081459 55 57 0.0 0.9 0.00 0.00 0.00 87 1013.9
20260503080958 55 57 0.0 0.9 0.00 0.00 0.00 87 1013.9
20260503080458 55 57 0.0 0.9 0.00 0.00 0.00 87 1013.8
20260503072458 56 57 0.0 0.0 0.00 0.00 0.00 83 1013.8
20260503071959 56 57 0.0 0.0 0.00 0.00 0.00 83 1013.8
20260503071458 56 57 0.0 0.0 0.00 0.00 0.00 82 1013.7
20260503070457 56 57 0.0 0.0 0.00 0.00 0.00 82 1013.8
20260503054959 60 26 0.9 1.7 0.00 0.00 0.00 76 1013.5
20260503054500 60 1 0.0 0.0 0.00 0.00 0.00 75 1013.4
20260503054000 60 1 0.0 0.0 0.00 0.00 0.00 75 1013.4
20260503053501 61 1 0.0 0.0 0.00 0.00 0.00 74 1013.4
20260503053001 61 1 0.0 0.0 0.00 0.00 0.00 74 1013.4
20260503052500 61 1 0.0 0.0 0.00 0.00 0.00 73 1013.4
20260503052000 61 1 0.0 0.0 0.00 0.00 0.00 72 1013.4
20260503050458 62 1 0.0 0.0 0.00 0.00 0.00 70 1013.4
20260503045958 62 1 0.0 0.0 0.00 0.00 0.00 70 1013.3
20260503045459 63 1 0.0 0.0 0.00 0.00 0.00 69 1013.3
20260503044958 63 1 0.0 0.9 0.00 0.00 0.00 68 1013.2
20260503044459 64 1 0.0 0.9 0.00 0.00 0.00 67 1013.2
20260503043958 64 1 0.0 0.9 0.00 0.00 0.00 65 1013.1
20260503043458 64 1 0.0 1.7 0.00 0.00 0.00 66 1013.1
20260503042959 65 11 0.9 1.7 0.00 0.00 0.00 65 1013.1
20260503042459 65 359 0.0 0.9 0.00 0.00 0.00 65 1013.1
20260503041959 65 359 0.0 0.9 0.00 0.00 0.00 64 1013.1
20260503041458 65 359 0.0 0.9 0.00 0.00 0.00 64 1012.9
20260503040957 65 359 0.0 0.9 0.00 0.00 0.00 64 1012.9
20260503040500 66 359 0.0 0.9 0.00 0.00 0.00 63 1012.8
20260503035457 66 15 0.0 1.7 0.00 0.00 0.00 62 1012.6
20260503034957 67 15 0.0 1.7 0.00 0.00 0.00 62 1012.6
20260503034457 67 339 0.0 1.7 0.00 0.00 0.00 61 1012.4
20260503033958 67 345 0.9 5.2 0.00 0.00 0.00 60 1012.4
20260503033459 68 339 0.9 5.2 0.00 0.00 0.00 61 1012.4
20260503032459 68 327 0.9 4.3 0.00 0.00 0.00 60 1012.2
20260503031958 69 314 0.0 1.7 0.00 0.00 0.00 60 1012.2
20260503031459 69 314 0.9 1.7 0.00 0.00 0.00 59 1012.2
20260503030959 70 319 0.9 1.7 0.00 0.00 0.00 59 1012.1
20260503030457 70 315 0.9 3.5 0.00 0.00 0.00 59 1012.0
20260503030001 70 359 0.9 4.3 0.00 0.00 0.00 58 1011.9
20260503025459 71 287 0.9 4.3 0.00 0.00 0.00 57 1011.9
20260503025000 71 295 0.0 1.7 0.00 0.00 0.00 57 1011.9
20260503024458 72 295 0.0 1.7 0.00 0.00 0.00 56 1011.9
20260503023958 72 335 1.7 2.6 0.00 0.00 0.00 55 1011.8
20260503023459 72 323 0.0 4.3 0.00 0.00 0.00 55 1011.8
20260503022959 72 313 2.6 4.3 0.00 0.00 0.00 55 1011.8
20260503022459 73 308 0.0 3.5 0.00 0.00 0.00 55 1011.8
20260503021958 73 319 0.0 4.3 0.00 0.00 0.00 55 1011.7
20260503021459 73 319 0.0 4.3 0.00 0.00 0.00 52 1011.7
20260503020958 74 264 0.0 2.6 0.00 0.00 0.00 52 1011.7
20260503020001 74 8 1.7 2.6 0.00 0.00 0.00 50 1011.7
20260503015459 75 215 0.9 4.3 0.00 0.00 0.00 50 1011.8
20260503014959 75 333 0.9 5.2 0.00 0.00 0.00 49 1011.8
20260503014459 75 350 0.9 6.1 0.00 0.00 0.00 49 1011.8
20260503014000 76 359 1.7 7.0 0.00 0.00 0.00 49 1011.8
20260503013459 76 295 3.5 6.1 0.00 0.00 0.00 48 1011.8
20260503012958 77 28 3.5 5.2 0.00 0.00 0.00 47 1011.9
20260503012500 78 261 0.9 6.1 0.00 0.00 0.00 46 1011.9
20260503011958 78 333 3.5 6.1 0.00 0.00 0.00 47 1011.9
20260503011459 78 46 2.6 5.2 0.00 0.00 0.00 46 1011.8
20260503010959 78 183 1.7 5.2 0.00 0.00 0.00 45 1011.9
20260503010459 78 302 1.7 4.3 0.00 0.00 0.00 46 1011.9
20260503010002 77 350 1.7 7.0 0.00 0.00 0.00 46 1011.9
20260503005458 78 265 2.6 6.1 0.00 0.00 0.00 47 1011.9
20260503004958 77 330 0.9 4.3 0.00 0.00 0.00 46 1012.0
20260503003958 79 213 1.7 5.2 0.00 0.00 0.00 46 1012.0
20260503003458 78 39 1.7 7.0 0.00 0.00 0.00 48 1012.1
20260503003000 78 1 1.7 7.8 0.00 0.00 0.00 45 1012.1
20260503002458 78 321 0.0 7.0 0.00 0.00 0.00 46 1012.1
20260503001959 79 236 2.6 7.0 0.00 0.00 0.00 46 1012.1
20260503001458 79 64 1.7 4.3 0.00 0.00 0.00 47 1012.1
20260503000959 79 1 2.6 5.2 0.00 0.00 0.00 46 1012.1
20260502235458 79 323 1.7 6.1 0.00 0.00 0.00 46 1012.2
20260502234959 78 305 2.6 7.8 0.00 0.00 0.00 47 1012.2
20260502234459 78 293 2.6 7.8 0.00 0.00 0.00 46 1012.2
20260502234000 78 253 0.9 7.0 0.00 0.00 0.00 48 1012.4
20260502233459 78 266 1.7 7.0 0.00 0.00 0.00 48 1012.4
20260502232958 78 271 1.7 6.1 0.00 0.00 0.00 49 1012.5
20260502232500 78 266 0.0 7.8 0.00 0.00 0.00 49 1012.6
20260502231958 77 256 1.7 7.8 0.00 0.00 0.00 50 1012.7
20260502231459 78 358 0.0 8.7 0.00 0.00 0.00 51 1012.7
20260502230958 77 360 2.6 9.6 0.00 0.00 0.00 51 1012.7
20260502230458 77 249 2.6 9.6 0.00 0.00 0.00 51 1012.9
20260502225958 77 311 4.3 7.0 0.00 0.00 0.00 52 1013.0
20260502224958 78 280 4.3 6.1 0.00 0.00 0.00 50 1013.1
20260502224459 77 348 1.7 6.1 0.00 0.00 0.00 50 1013.1
20260502223959 77 337 2.6 7.0 0.00 0.00 0.00 52 1013.2
20260502223459 77 304 3.5 7.0 0.00 0.00 0.00 49 1013.3
20260502222958 78 253 2.6 7.0 0.00 0.00 0.00 50 1013.4
20260502222458 78 254 0.9 4.3 0.00 0.00 0.00 50 1013.4
20260502221958 77 178 0.0 5.2 0.00 0.00 0.00 52 1013.4
20260502221459 76 285 2.6 6.1 0.00 0.00 0.00 52 1013.5
20260502220458 77 15 5.2 7.0 0.00 0.00 0.00 50 1013.6
20260502215958 76 326 2.6 6.1 0.00 0.00 0.00 51 1013.6
20260502215459 76 336 1.7 7.0 0.00 0.00 0.00 53 1013.6
20260502214958 77 283 3.5 7.0 0.00 0.00 0.00 49 1013.7
20260502214501 78 278 1.7 4.3 0.00 0.00 0.00 52 1013.7
20260502214000 77 278 0.9 6.1 0.00 0.00 0.00 52 1013.8
20260502213500 76 319 1.7 6.1 0.00 0.00 0.00 53 1013.8
20260502212959 76 249 0.9 7.0 0.00 0.00 0.00 53 1013.9
20260502211959 75 351 2.6 5.2 0.00 0.00 0.00 52 1014.1
20260502210001 75 174 0.9 6.1 0.00 0.00 0.00 52 1014.2
20260502205500 75 294 1.7 6.1 0.00 0.00 0.00 52 1014.2
20260502205000 75 7 3.5 5.2 0.00 0.00 0.00 55 1014.2
20260502204459 73 158 0.0 5.2 0.00 0.00 0.00 55 1014.3
20260502203959 73 280 1.7 6.1 0.00 0.00 0.00 55 1014.4
20260502203459 72 358 4.3 6.1 0.00 0.00 0.00 59 1014.4
20260502202958 71 328 4.3 5.2 0.00 0.00 0.00 59 1014.3
20260502202458 71 226 0.0 4.3 0.00 0.00 0.00 57 1014.4
20260502202000 72 231 1.7 5.2 0.00 0.00 0.00 54 1014.5
20260502201459 72 198 0.0 5.2 0.00 0.00 0.00 56 1014.6
20260502201000 72 341 2.6 5.2 0.00 0.00 0.00 56 1014.6
20260502200500 72 255 1.7 6.1 0.00 0.00 0.00 58 1014.6
20260502195458 72 296 1.7 4.3 0.00 0.00 0.00 59 1014.7
20260502194958 72 280 1.7 5.2 0.00 0.00 0.00 57 1014.8
20260502194459 72 229 5.2 5.2 0.00 0.00 0.00 57 1014.9
20260502193959 71 319 1.7 4.3 0.00 0.00 0.00 56 1014.9
20260502193459 72 219 0.0 4.3 0.00 0.00 0.00 57 1015.0